Tracking 35048 objects as of 19-Aug-2026
HD Live streaming from Space Station
objects crossing your sky now

SNUGLITE-III-DURI

Track SNUGLITE-III-DURI now!
10-day predictions
SNUGLITE-III-DURI is classified as:


NORAD ID: 66661
Int'l Code: 2025-274M
Launch date: November 26, 2025
Source: South Korea (SKOR)
Launch site: Naro Space Center, South Korea (NSC)

Uplink (MHz):
Downlink (MHz): 436.788/2405.000
Beacon (MHz):
Mode: 9k6 GMSK
Call sign: DS0DH
Status: Active


Note: This is a ROCKET BODY
Your satellite tracking list
Your tracking list is empty




NASA's NSSDC Master Catalog

Two Line Element Set (TLE):
1 66661U 25274M   26230.73175326  .00001144  00000-0  11197-3 0  9994
2 66661  97.7470 159.3627 0014770 165.3591 194.8059 14.94173795 39573
Source of the keplerian elements: AFSPC